Simultaneous Nadir Overpasses (SNOs) Predictions

Prediction of SNOs between METOP-B and TERRA Satellite Orbit:

Table of predicted SNOs for the next 14.0 days since TLE Epoch: 2/8/2013
Index Date (METOP-B) Time (METOP-B) Lat,Lon (METOP-B) SZA (METOP-B ) Date (TERRA) Time (TERRA) Lat,Lon (TERRA) SZA (TERRA ) Distance(km) Time Diff (sec)
1 02/10/2013 09:51:59 -81.28,-101.41 82.25 02/10/2013 09:52:16 -81.27,-101.49 82.26 1.61 17
2 02/10/2013 10:42:40 81.28, 66.12 97.77 02/10/2013 10:41:42 81.27, 66.25 97.75 2.15 58
3 02/13/2013 05:26:23 -81.28, -34.96 83.17 02/13/2013 05:26:29 -81.27, -34.97 83.18 0.45 6
4 02/13/2013 06:17:04 81.28, 132.56 96.84 02/13/2013 06:15:55 81.28, 132.74 96.83 3.18 69
5 02/16/2013 00:10:08 81.27,-136.31 95.84 02/16/2013 00:11:15 81.27,-136.13 95.89 3.16 67
6 02/1
